Change the Weather History Date:

Wednesday, December 5, 2012

  Actual Average Record
Temperature  
Mean Temperature 30 °F -  
Max Temperature 45 °F 28 °F 51 °F (1960)
Min Temperature 16 °F 12 °F -15 °F (1991)
Degree Days  
Heating Degree Days 36    
Moisture  
Dew Point 21 °F    
Average Humidity 67    
Maximum Humidity 88    
Minimum Humidity 53    
Precipitation  
Precipitation 0.00 in - - ()
Sea Level Pressure  
Sea Level Pressure 30.10 in    
Wind  
Wind Speed 9 mph (SE)    
Max Wind Speed 22 mph    
Max Gust Speed 29 mph    
Visibility 10 miles    
Events      
Averages and records for this station are not official NWS values.
T = Trace of Precipitation, MM = Missing Value Source: NWS Daily Summary

Daily Weather History Graph

Daily Weather History Graph

Search for Another Location

Airport or City:

Trip Planner

Search our weather history database for the weather conditions in past years. The results will help you decide how hot, cold, wet, or windy it might be!

Date:

Astronomy

Dec. 05, 2012 Rise Set
Actual Time 7:39 AM CST 4:36 PM CST
Civil Twilight 7:06 AM CST 5:10 PM CST
Nautical Twilight 6:29 AM CST 5:46 PM CST
Astronomical Twilight 5:54 AM CST 6:22 PM CST
Moon 11:40 PM CST (12/5) 11:52 AM CST (12/5)
Length of Visible Light 10h 03m
Length of Day
8h 56m
Waning Gibbous, 59% of the Moon is Illuminated
Dec 5
Waning Gibbous
Dec 6
Last Quarter
Dec 13
New
Dec 19
First Quarter
Dec 28
Full

Hourly Weather History & Observations

Time (CST) Temp. Windchill Dew Point Humidity Pressure Visibility Wind Dir Wind Speed Gust Speed Precip Events Conditions
12:09 AM 16.7 °F - 13.1 °F 86% 30.38 in 10.0 mi Calm Calm - N/A   Clear
12:28 AM 16.7 °F - 13.8 °F 88% 30.38 in 10.0 mi Calm Calm - N/A   Clear
12:49 AM 16.7 °F - 13.8 °F 88% 30.38 in 10.0 mi Calm Calm - N/A   Clear
1:09 AM 16.7 °F - 13.1 °F 86% 30.37 in 10.0 mi Calm Calm - N/A   Clear
1:49 AM 19.4 °F 11.5 °F 14.9 °F 83% 30.37 in 10.0 mi East 5.8 mph - N/A   Clear
2:08 AM 20.3 °F 12.5 °F 14.9 °F 80% 30.37 in 10.0 mi East 5.8 mph - N/A   Clear
2:28 AM 20.3 °F 10.6 °F 14.9 °F 80% 30.36 in 10.0 mi ENE 8.1 mph - N/A   Clear
2:49 AM 20.3 °F 10.6 °F 14.5 °F 78% 30.36 in 10.0 mi East 8.1 mph - N/A   Clear
3:08 AM 19.2 °F 12.5 °F 13.8 °F 80% 30.38 in 10.0 mi East 4.6 mph - N/A   Clear
3:29 AM 19.2 °F 11.3 °F 14.7 °F 83% 30.37 in 10.0 mi East 5.8 mph - N/A   Clear
3:49 AM 19.2 °F 11.3 °F 14.7 °F 83% 30.36 in 10.0 mi East 5.8 mph - N/A   Clear
4:08 AM 19.2 °F 9.3 °F 14.5 °F 82% 30.35 in 10.0 mi East 8.1 mph - N/A   Clear
4:29 AM 19.2 °F 10.2 °F 14.7 °F 83% 30.34 in 10.0 mi East 6.9 mph - N/A   Clear
4:49 AM 19.2 °F 10.2 °F 14.5 °F 82% 30.34 in 10.0 mi ESE 6.9 mph - N/A   Clear
5:09 AM 19.2 °F 10.2 °F 14.9 °F 83% 30.34 in 10.0 mi ESE 6.9 mph - N/A   Clear
5:29 AM 19.2 °F 10.2 °F 15.3 °F 85% 30.33 in 10.0 mi ESE 6.9 mph - N/A   Clear
5:48 AM 19.2 °F 8.4 °F 14.7 °F 83% 30.32 in 10.0 mi East 9.2 mph - N/A   Clear
6:08 AM 19.2 °F 7.0 °F 14.4 °F 81% 30.32 in 10.0 mi East 11.5 mph - N/A   Clear
6:29 AM 19.2 °F 8.4 °F 14.4 °F 81% 30.31 in 10.0 mi East 9.2 mph - N/A   Clear
6:48 AM 19.2 °F 7.7 °F 14.4 °F 81% 30.31 in 10.0 mi ESE 10.4 mph - N/A   Clear
8:28 AM 20.3 °F 9.0 °F 15.4 °F 81% 30.28 in 10.0 mi ESE 10.4 mph - N/A   Clear
8:48 AM 21.7 °F 10.8 °F 16.0 °F 78% 30.28 in 10.0 mi SE 10.4 mph - N/A   Clear
9:09 AM 23.0 °F 11.1 °F 16.5 °F 76% 30.28 in 10.0 mi SE 12.7 mph 17.3 mph N/A   Clear
9:28 AM 24.3 °F 11.7 °F 16.9 °F 73% 30.25 in 10.0 mi ESE 15.0 mph - N/A   Clear
9:49 AM 26.4 °F 15.5 °F 18.3 °F 71% 30.24 in 10.0 mi SE 12.7 mph 17.3 mph N/A   Clear
10:09 AM 29.3 °F 18.2 °F 19.4 °F 67% 30.23 in 10.0 mi SE 15.0 mph - N/A   Clear
10:24 AM 29.3 °F 18.2 °F 18.5 °F 64% 30.22 in 10.0 mi SE 15.0 mph 21.9 mph N/A   Clear
10:50 AM 30.2 °F 19.8 °F 17.6 °F 60% 30.20 in 10.0 mi SE 13.8 mph 21.9 mph N/A   Clear
10:52 AM 30.2 °F 19.3 °F 18.7 °F 62% 30.20 in 10.0 mi SE 15.0 mph 21.9 mph N/A   Clear
11:09 AM 30.6 °F 19.8 °F 18.3 °F 60% 30.18 in 10.0 mi SE 15.0 mph 20.7 mph N/A   Clear
11:29 AM 31.8 °F 21.0 °F 19.2 °F 60% 30.16 in 10.0 mi ESE 16.1 mph - N/A   Clear
11:49 AM 31.8 °F 20.2 °F 18.9 °F 59% 30.15 in 10.0 mi ESE 18.4 mph - N/A   Clear
12:09 PM 34.0 °F 23.8 °F 20.7 °F 58% 30.13 in 10.0 mi SE 16.1 mph - N/A   Clear
12:29 PM 34.0 °F 23.4 °F 20.1 °F 57% 30.11 in 10.0 mi SE 17.3 mph - N/A   Scattered Clouds
12:48 PM 34.0 °F 23.0 °F 19.9 °F 56% 30.10 in 10.0 mi SE 18.4 mph 27.6 mph N/A   Scattered Clouds
1:09 PM 34.0 °F 23.8 °F 20.1 °F 57% 30.08 in 10.0 mi ESE 16.1 mph 25.3 mph N/A   Clear
1:28 PM 35.2 °F 25.0 °F 21.2 °F 57% 30.06 in 10.0 mi SE 17.3 mph 23.0 mph N/A   Clear
1:49 PM 36.5 °F 26.7 °F 22.1 °F 56% 30.04 in 10.0 mi ESE 17.3 mph 21.9 mph N/A   Clear
2:09 PM 36.5 °F 27.0 °F 21.9 °F 56% 30.02 in 10.0 mi SE 16.1 mph 24.2 mph N/A   Clear
2:28 PM 39.2 °F 30.2 °F 23.7 °F 54% 30.01 in 10.0 mi SE 17.3 mph 21.9 mph N/A   Clear
2:48 PM 39.2 °F 29.6 °F 23.4 °F 53% 30.00 in 10.0 mi SE 19.6 mph 26.5 mph N/A   Clear
3:08 PM 39.2 °F 30.5 °F 23.7 °F 54% 29.99 in 10.0 mi SE 16.1 mph 24.2 mph N/A   Clear
3:29 PM 39.2 °F 29.8 °F 23.9 °F 54% 29.98 in 10.0 mi SE 18.4 mph 23.0 mph N/A   Clear
3:49 PM 39.2 °F 29.8 °F 23.7 °F 54% 29.96 in 10.0 mi SE 18.4 mph 28.8 mph N/A   Clear
4:09 PM 39.2 °F 29.0 °F 23.9 °F 54% 29.94 in 10.0 mi SE 21.9 mph 27.6 mph N/A   Mostly Cloudy
4:28 PM 39.2 °F 29.0 °F 23.9 °F 54% 29.93 in 10.0 mi SE 21.9 mph 28.8 mph N/A   Mostly Cloudy
4:49 PM 39.2 °F 29.8 °F 23.9 °F 54% 29.92 in 10.0 mi SE 18.4 mph 28.8 mph N/A   Scattered Clouds
5:08 PM 39.2 °F 29.3 °F 24.4 °F 56% 29.90 in 10.0 mi SE 20.7 mph 26.5 mph N/A   Clear
5:29 PM 39.2 °F 29.8 °F 24.8 °F 56% 29.90 in 10.0 mi SE 18.4 mph 24.2 mph N/A   Scattered Clouds
6:09 PM 40.1 °F 32.7 °F 25.9 °F 57% 29.90 in 10.0 mi SE 12.7 mph 21.9 mph N/A   Overcast
6:28 PM 40.1 °F 32.7 °F 26.2 °F 58% 29.90 in 10.0 mi SSE 12.7 mph 19.6 mph N/A   Overcast
6:49 PM 40.3 °F 32.6 °F 26.4 °F 58% 29.89 in 10.0 mi SSE 13.8 mph 25.3 mph N/A   Overcast
7:08 PM 40.3 °F 33.4 °F 26.6 °F 58% 29.88 in 10.0 mi SSE 11.5 mph 19.6 mph N/A   Mostly Cloudy
7:29 PM 40.3 °F 32.6 °F 26.6 °F 58% 29.88 in 10.0 mi SSE 13.8 mph 20.7 mph N/A   Mostly Cloudy
7:48 PM 40.3 °F 32.6 °F 27.0 °F 59% 29.88 in 10.0 mi SSE 13.8 mph 23.0 mph N/A   Overcast
8:09 PM 40.3 °F 32.2 °F 27.1 °F 59% 29.87 in 10.0 mi SSE 15.0 mph 23.0 mph N/A   Overcast
8:29 PM 40.3 °F 32.2 °F 27.5 °F 60% 29.86 in 10.0 mi SE 15.0 mph 19.6 mph N/A   Overcast
8:48 PM 40.3 °F 33.0 °F 27.5 °F 60% 29.86 in 10.0 mi SSE 12.7 mph 24.2 mph N/A   Overcast
9:09 PM 40.3 °F 33.9 °F 28.0 °F 62% 29.85 in 10.0 mi SSE 10.4 mph 19.6 mph N/A   Overcast
9:29 PM 40.3 °F 32.6 °F 28.4 °F 63% 29.85 in 10.0 mi SE 13.8 mph 20.7 mph N/A   Mostly Cloudy
9:48 PM 40.3 °F 32.6 °F 28.4 °F 63% 29.83 in 10.0 mi SE 13.8 mph 20.7 mph N/A   Overcast
10:09 PM 40.6 °F 33.4 °F 29.3 °F 64% 29.83 in 10.0 mi SE 12.7 mph 20.7 mph N/A   Overcast
10:28 PM 41.5 °F 34.2 °F 30.0 °F 64% 29.81 in 10.0 mi SE 13.8 mph 21.9 mph N/A   Overcast
10:49 PM 41.5 °F 35.0 °F 30.2 °F 64% 29.80 in 10.0 mi SSE 11.5 mph 19.6 mph N/A   Overcast
11:08 PM 41.5 °F 35.4 °F 30.6 °F 65% 29.79 in 10.0 mi SSE 10.4 mph 17.3 mph N/A   Scattered Clouds
11:29 PM 43.3 °F 37.7 °F 31.5 °F 63% 29.78 in 10.0 mi SSE 10.4 mph 23.0 mph N/A   Mostly Cloudy
11:48 PM 45.0 °F 37.9 °F 32.4 °F 61% 29.78 in 10.0 mi South 16.1 mph 25.3 mph N/A   Overcast